Simultaneous Nadir Overpasses (SNOs) Predictions

Prediction of SNOs between LANDSAT-8 and NOAA-19 Satellite Orbit:

Table of predicted SNOs for the next 14.0 days since TLE Epoch: 9/14/2024
Index Date (LANDSAT-8) Time (LANDSAT-8) Lat,Lon (LANDSAT-8) SZA (LANDSAT-8 ) Date (NOAA-19) Time (NOAA-19) Lat,Lon (NOAA-19) SZA (NOAA-19 ) Distance(km) Time Diff (sec)
1 09/15/2024 09:16:47 80.49, 72.90 79.26 09/15/2024 09:16:14 80.49, 72.98 79.26 1.41 33
2 09/15/2024 10:06:13 -80.52,-119.15 100.67 09/15/2024 10:07:16 -80.51,-119.32 100.67 3.19 63
3 09/17/2024 15:39:59 80.44, -23.36 80.07 09/17/2024 15:38:56 80.45, -23.21 80.07 3.07 63
4 09/17/2024 16:29:24 -80.50, 144.92 99.81 09/17/2024 16:29:57 -80.51, 144.95 99.79 0.62 33
5 09/19/2024 22:52:34 -80.48, 48.87 98.96 09/19/2024 22:52:38 -80.49, 49.02 98.94 2.99 4
6 09/22/2024 05:15:43 -80.44, -47.29 98.13 09/22/2024 05:15:20 -80.44, -47.44 98.15 2.72 23
7 09/22/2024 06:05:06 80.50, 120.95 81.99 09/22/2024 06:06:09 80.50, 120.93 82.02 0.35 63
8 09/24/2024 11:38:49 -80.42,-143.25 97.26 09/24/2024 11:37:59 -80.42,-143.42 97.30 3.22 50
9 09/24/2024 12:28:13 80.48, 24.96 82.85 09/24/2024 12:28:49 80.48, 24.89 82.86 1.47 36



Historial Predications of SNOs between LANDSAT-8 and NOAA-19
